Regional Weather Roundup
Issued by NWS

Home | Current Version | Previous Version | Text Only | Print | Product List | Glossary On
Versions: 1 2 3 4 5 6 7 8 9 10 11 12 13 14 15 16 17 18 19 20 21 22 23 24 25 26 27 28 29 30 31 32 33 34 35 36 37 38 39 40 41 42 43 44 45 46 47 48 49 50
000
ASUS43 KTOP 261608
RWRKS

WEATHER ROUNDUP FOR KANSAS
NATIONAL WEATHER SERVICE GOODLAND KS
1100 AM CDT FRI MAY 26 2017

NOTE:  "FAIR" INDICATES FEW OR NO CLOUDS BELOW 12,000 FEET WITH NO
SIGNIFICANT WEATHER AND/OR OBSTRUCTIONS TO VISIBILITY.

KSZ001>006-013>018-027>032-041>047-261700-
NORTHWEST KANSAS

CITY           SKY/WX    TMP DP  RH WIND       PRES   REMARKS
GOODLAND       SUNNY     60  48  64 N13       29.95R
HAYS           SUNNY     68  54  60 N16       29.86R
HILL CITY      SUNNY     68  49  50 N13       29.90R
RUSSELL        SUNNY     69  57  65 N15       29.82R
$$

KSZ061>065-074>080-084>089-261700-
SOUTHWEST KANSAS

CITY           SKY/WX    TMP DP  RH WIND       PRES   REMARKS
DODGE CITY     SUNNY     72  56  57 N17       29.86R
ELKHART          N/A     70  43  37 NE9         N/A
GARDEN CITY    SUNNY     73  53  49 N22G28    29.88R
GREAT BEND     SUNNY     71  60  68 N14       29.82S
LIBERAL        SUNNY     75  52  44 N16G22    29.89R
PRATT          SUNNY     72  54  53 N18       29.81S
$$

KSZ066>073-081>083-090>101-261700-
SOUTHEAST KANSAS

CITY           SKY/WX    TMP DP  RH WIND       PRES   REMARKS
CHANUTE        SUNNY     79  64  60 MISG      29.71S
COFFEYVILLE    SUNNY     79  70  74 SW7       29.69R
HUTCHINSON     SUNNY     77  60  55 N14       29.77R
MEDICINE LODGE   N/A     78  57  48 N13G22    29.77R
NEWTON         SUNNY     76  64  66 N13       29.76R
PARSONS        SUNNY     79  65  62 CALM      29.71R
WICHITA INTL   SUNNY     77  64  64 N14       29.74S
WICHITA JABRA  SUNNY     78  65  63 NW15      29.75R
WICHITA MCCONL SUNNY     77  63  62 NW14      29.75R
WINFIELD       SUNNY     78  66  66 N12       29.74R
$$

KSZ007>012-019>026-033>040-048>060-102>105-261700-
NORTHEAST KANSAS

CITY           SKY/WX    TMP DP  RH WIND       PRES   REMARKS
CONCORDIA      SUNNY     71  58  63 N14       29.79S
EMPORIA        SUNNY     74  65  73 NE6       29.74R
LAWRENCE       SUNNY     75  65  70 NW7       29.74R
MANHATTAN      SUNNY     78  65  63 VRB7      29.75R
MARYSVILLE     SUNNY     75  63  64 N15       29.77R
OLATHE IND     SUNNY     74  63  68 W5        29.74S
OLATHE EXE     MOSUNNY   75  64  68 VRB3      29.74S
SALINA         SUNNY     76  64  66 N10       29.78S
TOPEKA BILLARD MOSUNNY   77  66  68 VRB5      29.74R
TOPEKA FORBES  SUNNY     77  65  66 NW8       29.75R
$$



USA.gov is the U.S. government's official web portal to all federal, state and local government web resources and services.